Location: Bottens
(46.6171°N, 6.6605°E)
Time: 12:26:11
(UTC+00:00)

Cosmos 1825 - Pass Details

Date: 24 October 2021
Orbit: 501 x 504 km, 82.5° (Epoch: 29 November)

Event Time Altitude Azimuth Distance (km) Brightness Sun altitude
Rises 17:55:43 0° 2° (N) 2,609 5.7 -15.2°
Reaches altitude 10° 17:58:09 10° 16° (NNE) 1,719 4.7 -15.7°
Enters shadow 17:59:45 19° 37° (NE) 1,261 3.8 -15.9°
